"TOA5","Daniel_8S","CR1000","25733","CR1000.Std.29","CPU:UpperGreen16.CR1","57027","Table201"
"TIMESTAMP","RECORD","Ta_C_Max","Ta_C_Min","WSPD_1minArray_Max","WSPD_1minArray_TMx","VP_Avg","VP_DEF_Avg","Rain_Tot","WSPD_5sec_Max","WSPD_5sec_TMx","BattVolts_Min"
"TS","RN","","","","","","","","","",""
"","","Max","Min","Max","TMx","Avg","Avg","Tot","Max","TMx","Min"
"2016-07-23 00:00:00",0,31.54,0,10.16,"2016-07-22 14:02:00",0.949,1.758,0,12.59,"2016-07-22 14:01:20",0
"2016-07-24 00:00:00",1,28.4,-39.8,7.738,"2016-07-23 15:31:00",0.473,1.754,0,9.87,"2016-07-23 11:33:55",12.29
"2016-07-25 00:00:00",2,30.56,1.859,5.208,"2016-07-24 17:40:00",0.5,1.75,0,7.472,"2016-07-24 14:27:20",12.26
"2016-07-26 00:00:00",3,33,3.04,6.3,"2016-07-25 18:09:00",0.51,2.071,0,7.792,"2016-07-25 18:06:15",12.26
"2016-07-27 00:00:00",4,32.12,5.639,13.04,"2016-07-26 14:32:00",0.541,2.069,0,15.3,"2016-07-26 14:31:10",12.29
"2016-07-28 00:00:00",5,31.98,5.199,7.605,"2016-07-27 14:14:00",0.603,1.95,0,9.39,"2016-07-27 16:45:55",12.31
"2016-07-29 00:00:00",6,30.73,7.997,8.32,"2016-07-28 15:27:00",0.548,1.986,0,12.11,"2016-07-28 02:00:25",12.35
"2016-07-30 00:00:00",7,30.9,5.402,7.592,"2016-07-29 15:48:00",0.684,1.768,0,9.23,"2016-07-29 15:52:15",12.3
"2016-07-31 00:00:00",8,29.58,7.057,10.19,"2016-07-30 14:10:00",0.755,1.546,0,13.07,"2016-07-30 12:58:55",12.3
"2016-08-01 00:00:00",9,29.62,5.806,10.15,"2016-07-31 11:45:00",0.93,1.317,1.778,12.27,"2016-07-31 11:45:00",12.31
"2016-08-02 00:00:00",10,30.29,3.341,8.3,"2016-08-01 16:34:00",0.663,1.707,0,11.79,"2016-08-01 14:10:55",12.27
"2016-08-03 00:00:00",11,30.19,4.118,17.42,"2016-08-02 13:59:00",0.641,1.677,0,20.42,"2016-08-02 13:59:00",12.27
"2016-08-04 00:00:00",12,29.35,3.61,10.31,"2016-08-03 14:01:00",0.533,1.719,0,12.91,"2016-08-03 14:26:50",12.32
"2016-08-05 00:00:00",13,28.54,-2.794,5.048,"2016-08-04 14:42:00",0.322,1.704,0,6.354,"2016-08-04 14:41:15",12.21
"2016-08-06 00:00:00",14,29.48,7.02,6.42,"2016-08-05 14:24:00",0.576,1.792,0,7.472,"2016-08-05 14:23:25",12.32
"2016-08-07 00:00:00",15,28.87,7.862,8.44,"2016-08-06 19:06:00",0.716,1.532,0.254,10.51,"2016-08-06 19:05:25",12.32
"2016-08-08 00:00:00",16,26.03,-39.8,11.64,"2016-08-07 12:15:00",1.055,0.694,6.096,15.14,"2016-08-07 12:14:20",12.35
"2016-08-09 00:00:00",17,27.59,-39.8,6.953,"2016-08-08 13:49:00",0.841,1.144,0.254,9.71,"2016-08-08 14:17:35",12.29
"2016-08-10 00:00:00",18,28.3,6.146,9.26,"2016-08-09 12:22:00",0.614,1.624,0,11.63,"2016-08-09 14:26:45",12.34
"2016-08-11 00:00:00",19,26.64,6.146,8.02,"2016-08-10 13:59:00",0.581,1.443,0,10.03,"2016-08-10 13:40:50",12.32
"2016-08-12 00:00:00",20,23.9,4.185,8.18,"2016-08-11 17:26:00",0.671,1.099,1.27,10.67,"2016-08-11 17:25:20",12.34
"2016-08-13 00:00:00",21,27.01,-39.8,6.607,"2016-08-12 17:40:00",0.589,1.236,0,9.39,"2016-08-12 14:33:20",12.25
"2016-08-14 00:00:00",22,27.39,1.86,5.475,"2016-08-13 14:45:00",0.555,1.447,0,6.673,"2016-08-13 13:29:05",12.26
"2016-08-15 00:00:00",23,29.18,3.475,8.83,"2016-08-14 14:44:00",0.559,1.565,0,11.15,"2016-08-14 15:05:20",12.28
"2016-08-16 00:00:00",24,27.08,7.017,11.48,"2016-08-15 15:53:00",0.738,1.193,0.762,14.02,"2016-08-15 15:52:15",12.33
"2016-08-17 00:00:00",25,29.68,3.07,10.63,"2016-08-16 13:33:00",0.67,1.523,0,12.43,"2016-08-16 13:17:00",12.28
"2016-08-18 00:00:00",26,28.63,4.49,10.16,"2016-08-17 15:00:00",0.736,1.226,0.254,12.11,"2016-08-17 15:13:05",12.29
"2016-08-19 00:00:00",27,25.32,7.156,12.69,"2016-08-18 17:13:00",0.808,1,0,15.46,"2016-08-18 17:05:55",12.32
"2016-08-20 00:00:00",28,24.27,3.949,6.247,"2016-08-19 16:55:00",0.9,0.732,0,7.792,"2016-08-19 16:54:30",12.29
"2016-08-21 00:00:00",29,26.57,-0.534,8.35,"2016-08-20 15:18:00",0.559,1.226,0,11.31,"2016-08-20 14:51:05",12.25
"2016-08-22 00:00:00",30,29.47,1.589,7.352,"2016-08-21 17:19:00",0.498,1.593,0,8.91,"2016-08-21 14:24:00",12.26
"2016-08-23 00:00:00",31,28.39,2.124,9.78,"2016-08-22 13:28:00",0.404,1.653,0,12.43,"2016-08-22 16:36:40",12.28
"2016-08-24 00:00:00",32,24.88,-0.237,9.68,"2016-08-23 14:54:00",0.302,1.447,0,12.43,"2016-08-23 13:48:00",12.26
"2016-08-25 00:00:00",33,23.94,-2.997,6.913,"2016-08-24 18:52:00",0.36,1.195,0,8.43,"2016-08-24 18:46:10",12.21
"2016-08-26 00:00:00",34,"NAN","NAN",9.67,"2016-08-25 17:09:00","NAN","NAN",0.254,11.79,"2016-08-25 17:01:30",12.27
"2016-08-27 00:00:00",35,21.16,-2.388,12.65,"2016-08-26 14:25:00",0.626,0.679,0.254,15.62,"2016-08-26 14:24:10",12.19
"2016-08-28 00:00:00",36,25.96,-3.437,7.379,"2016-08-27 16:54:00",0.511,1.107,0,9.23,"2016-08-27 15:37:05",12.26
"2016-08-29 00:00:00",37,27.85,0.203,7.392,"2016-08-28 13:45:00",0.496,1.454,0,8.75,"2016-08-28 13:44:35",12.26
"2016-08-30 00:00:00",38,29.61,3.442,6.234,"2016-08-29 12:55:00",0.519,1.712,0,7.792,"2016-08-29 13:19:15",12.32
"2016-08-31 00:00:00",39,29.92,-39.8,5.701,"2016-08-30 13:36:00",0.523,1.71,0,6.194,"2016-08-30 13:34:55",12.31
"2016-09-01 00:00:00",40,29.65,4.625,5.488,"2016-08-31 12:05:00",0.532,1.719,0,6.833,"2016-08-31 12:04:40",12.3
"2016-09-02 00:00:00",41,28,6.99,11.41,"2016-09-01 12:30:00",0.716,1.422,1.524,13.38,"2016-09-01 12:29:25",12.34
"2016-09-03 00:00:00",42,26.5,4.895,8.87,"2016-09-02 14:43:00",0.693,1.281,0,12.27,"2016-09-02 14:42:35",12.32
"2016-09-04 00:00:00",43,25.46,5.706,9.42,"2016-09-03 00:07:00",0.813,1.067,0,12.75,"2016-09-03 00:07:00",12.33
"2016-09-05 00:00:00",44,19.82,-39.8,13.58,"2016-09-04 13:03:00",0.954,0.481,11.94,16.1,"2016-09-04 12:52:25",12.34
"2016-09-06 00:00:00",45,18.94,1.285,6.287,"2016-09-05 17:05:00",0.642,0.59,0.254,6.993,"2016-09-05 17:04:35",12.27
"2016-09-07 00:00:00",46,21.13,-3.572,8.54,"2016-09-06 15:20:00",0.445,0.969,0,10.51,"2016-09-06 15:42:55",12.22
"2016-09-08 00:00:00",47,20.89,2.698,8.47,"2016-09-07 11:48:00",0.527,0.974,0,10.99,"2016-09-07 14:26:30",12.3
"2016-09-09 00:00:00",48,21.16,-0.467,10.87,"2016-09-08 13:32:00",0.526,0.915,0,13.38,"2016-09-08 14:33:45",12.25
"2016-09-10 00:00:00",49,19.88,-2.259,8.84,"2016-09-09 12:05:00",0.298,0.975,0,10.35,"2016-09-09 10:19:15",12.23
"2016-09-11 00:00:00",50,24.5,-5.224,7.592,"2016-09-10 17:20:00",0.284,1.182,0,8.91,"2016-09-10 16:32:35",12.2
"2016-09-12 00:00:00",51,25.72,-3.369,9.39,"2016-09-11 15:36:00",0.33,1.296,0,11.31,"2016-09-11 13:07:30",12.22
"2016-09-13 00:00:00",52,17.11,-39.8,9.43,"2016-09-12 11:03:00",0.658,0.595,1.016,10.35,"2016-09-12 11:02:05",12.3
"2016-09-14 00:00:00",53,18.9,4.084,11.48,"2016-09-13 20:08:00",0.86,0.355,6.35,13.07,"2016-09-13 20:07:25",12.31
"2016-09-15 00:00:00",54,13.84,3.408,10.84,"2016-09-14 14:00:00",0.853,0.208,10.16,12.91,"2016-09-14 14:00:25",12.32
"2016-09-16 00:00:00",55,14.55,0.811,6.7,"2016-09-15 17:12:00",0.695,0.343,0,8.59,"2016-09-15 09:38:20",12.27
"2016-09-17 00:00:00",56,19.06,-0.738,5.874,"2016-09-16 17:18:00",0.638,0.522,0,6.513,"2016-09-16 17:20:00",12.25
"2016-09-18 00:00:00",57,21.09,-1.647,8.82,"2016-09-17 15:33:00",0.587,0.728,0,10.51,"2016-09-17 15:39:25",12.23
"2016-09-19 00:00:00",58,22.27,3.34,9.32,"2016-09-18 12:20:00",0.745,0.77,0,11.15,"2016-09-18 12:18:55",12.3
"2016-09-20 00:00:00",59,25.15,3.982,7.086,"2016-09-19 16:01:00",0.727,1.035,0,8.75,"2016-09-19 15:50:25",12.29
"2016-09-21 00:00:00",60,26.84,1.183,9.07,"2016-09-20 13:08:00",0.54,1.21,0,10.35,"2016-09-20 13:07:15",12.25
"2016-09-22 00:00:00",61,24.03,-0.233,7.632,"2016-09-21 22:51:00",0.671,0.988,0,9.55,"2016-09-21 22:44:55",12.25
"2016-09-23 00:00:00",62,18.49,-39.8,9.35,"2016-09-22 16:17:00",1.093,0.349,7.112,12.27,"2016-09-22 22:56:40",12.35
"2016-09-24 00:00:00",63,10.46,-39.8,9.02,"2016-09-23 01:15:00",0.833,0.151,1.27,11.47,"2016-09-23 01:13:55",12.31
"2016-09-25 00:00:00",64,11.34,-39.8,11.63,"2016-09-24 13:27:00",0.671,0.252,2.794,14.34,"2016-09-24 13:26:55",12.27
"2016-09-26 00:00:00",65,18.83,-1.51,7.499,"2016-09-25 15:34:00",0.612,0.569,0.254,9.07,"2016-09-25 17:22:05",12.26
"2016-09-27 00:00:00",66,24.5,2.835,6.953,"2016-09-26 01:39:00",0.716,0.886,0,8.11,"2016-09-26 00:04:10",12.28
"2016-09-28 00:00:00",67,26.46,-0.129,3.85,"2016-09-27 20:54:00",0.679,0.915,0,4.596,"2016-09-27 12:01:15",12.25
"2016-09-29 00:00:00",68,23.83,-0.196,8.86,"2016-09-28 13:29:00",0.608,0.951,0,11.15,"2016-09-28 13:28:40",12.24
"2016-09-30 00:00:00",69,21.97,4.016,8.04,"2016-09-29 14:08:00",0.825,0.621,0,9.87,"2016-09-29 15:35:20",12.32
"2016-10-01 00:00:00",70,23.12,0.676,8.19,"2016-09-30 14:32:00",0.81,0.553,0,9.71,"2016-09-30 14:20:40",12.26
"2016-10-02 00:00:00",71,20.11,0.575,8.99,"2016-10-01 14:49:00",0.806,0.48,2.794,10.99,"2016-10-01 14:48:40",12.25
"2016-10-03 00:00:00",72,16.91,4.861,10.76,"2016-10-02 13:49:00",0.966,0.265,12.45,13.7,"2016-10-02 13:48:45",12.31
"2016-10-04 00:00:00",73,8.17,1.312,9.44,"2016-10-03 15:30:00",0.682,0.114,11.43,11.15,"2016-10-03 15:29:50",12.3
"2016-10-05 00:00:00",74,7.524,-0.908,8.84,"2016-10-04 13:54:00",0.537,0.215,0,10.35,"2016-10-04 13:53:40",12.24
"2016-10-06 00:00:00",75,10.02,-3.606,8.4,"2016-10-05 15:35:00",0.478,0.229,0,9.71,"2016-10-05 15:33:35",12.34
"2016-10-07 00:00:00",76,8.67,-5.532,8.16,"2016-10-06 12:06:00",0.48,0.191,0.254,9.71,"2016-10-06 12:05:50",12.26
"2016-10-08 00:00:00",77,12.75,-7.248,4.356,"2016-10-07 17:07:00",0.463,0.301,0.254,5.555,"2016-10-07 16:51:15",12.21
"2016-10-09 00:00:00",78,17.71,-4.552,3.797,"2016-10-08 13:48:00",0.527,0.466,0,4.436,"2016-10-08 13:47:00",12.22
"2016-10-10 00:00:00",79,19.27,-4.654,6.673,"2016-10-09 14:54:00",0.49,0.607,0,8.91,"2016-10-09 14:53:10",12.22
"2016-10-11 00:00:00",80,19.64,-4.62,10.12,"2016-10-10 13:58:00",0.441,0.71,0,12.27,"2016-10-10 14:41:30",12.2
"2016-10-12 00:00:00",81,14.02,-1.719,11.27,"2016-10-11 10:11:00",0.509,0.423,0,12.91,"2016-10-11 10:25:45",12.25
"2016-10-13 00:00:00",82,16.29,-7.62,3.903,"2016-10-12 23:06:00",0.361,0.455,0,4.596,"2016-10-12 20:46:15",12.18
"2016-10-14 00:00:00",83,17.85,-7.383,8.03,"2016-10-13 16:02:00",0.359,0.682,0,10.03,"2016-10-13 14:03:50",12.17
"2016-10-15 00:00:00",84,18.12,3.509,9.67,"2016-10-14 15:50:00",0.553,0.679,0,10.99,"2016-10-14 15:55:40",12.29
"2016-10-16 00:00:00",85,11.91,3.306,5.648,"2016-10-15 21:21:00",0.755,0.286,0.762,7.312,"2016-10-15 21:20:15",12.31
"2016-10-17 00:00:00",86,10.57,-0.507,12.79,"2016-10-16 05:19:00",0.574,0.324,2.286,15.3,"2016-10-16 05:20:50",12.32
"2016-10-18 00:00:00",87,4.685,-10.77,9.52,"2016-10-17 11:51:00",0.496,0.094,18.54,11.15,"2016-10-17 11:49:45",12.24
"2016-10-19 00:00:00",88,13.54,-11.74,6.753,"2016-10-18 16:21:00",0.404,0.174,2.032,7.632,"2016-10-18 16:20:25",12.24
"2016-10-20 00:00:00",89,9.32,-7.59,7.978,"2016-10-19 10:37:00",0.445,0.156,0.762,9.23,"2016-10-19 10:36:00",12.27
"2016-10-21 00:00:00",90,7.321,-11.97,3.584,"2016-10-20 22:43:00",0.338,0.172,0.762,3.957,"2016-10-20 22:36:55",12.16
"2016-10-22 00:00:00",91,14.17,-8.47,2.851,"2016-10-21 17:47:00",0.397,0.278,0.254,3.317,"2016-10-21 12:12:20",12.17
"2016-10-23 00:00:00",92,17.78,-5.734,3.011,"2016-10-22 23:50:00",0.489,0.372,0.254,3.317,"2016-10-22 19:49:20",12.21
"2016-10-24 00:00:00",93,12.96,-2.861,3.797,"2016-10-23 14:11:00",0.569,0.299,0,4.436,"2016-10-23 14:10:25",12.23
"2016-10-25 00:00:00",94,9.92,-1.211,4.223,"2016-10-24 14:25:00",0.757,0.11,1.016,5.075,"2016-10-24 16:04:00",12.26
"2016-10-26 00:00:00",95,13.56,-0.81,8.12,"2016-10-25 02:39:00",0.735,0.242,0.762,9.71,"2016-10-25 02:39:50",12.31
"2016-10-27 00:00:00",96,14.94,-3.166,3.996,"2016-10-26 15:11:00",0.672,0.26,0.254,4.596,"2016-10-26 15:10:25",12.24
"2016-10-28 00:00:00",97,17.78,-2.862,6.846,"2016-10-27 13:58:00",0.663,0.388,0,8.27,"2016-10-27 13:57:15",12.26
"2016-10-29 00:00:00",98,13.47,-0.44,5.581,"2016-10-28 15:15:00",0.793,0.182,7.112,6.673,"2016-10-28 15:14:45",12.26
"2016-10-30 00:00:00",99,17.44,0.676,4.502,"2016-10-29 13:57:00",0.805,0.234,0.254,5.555,"2016-10-29 13:29:25",12.31
"2016-10-31 00:00:00",100,13.23,0.744,10.75,"2016-10-30 23:54:00",0.825,0.196,1.27,12.75,"2016-10-30 23:53:40",12.32
"2016-11-01 00:00:00",101,8.33,-39.8,8.96,"2016-10-31 00:01:00",0.496,0.245,0.508,10.99,"2016-10-31 00:00:15",12.24
"2016-11-02 00:00:00",102,5.232,-7.495,3.371,"2016-11-01 12:24:00",0.466,0.053,3.81,3.797,"2016-11-01 06:58:35",12.28
"2016-11-03 00:00:00",103,7.759,-9.72,2.904,"2016-11-02 14:51:00",0.428,0.159,0.762,3.317,"2016-11-02 14:52:25",12.21
"2016-11-04 00:00:00",104,12.32,-7.268,3.371,"2016-11-03 20:50:00",0.442,0.263,0.254,3.957,"2016-11-03 13:56:50",12.23
"2016-11-05 00:00:00",105,17.49,-6.999,3.211,"2016-11-04 07:44:00",0.426,0.415,0,3.797,"2016-11-04 07:39:40",12.22
"2016-11-06 00:00:00",106,15.27,-4.874,3.517,"2016-11-05 20:14:00",0.458,0.403,0,4.276,"2016-11-05 14:30:00",12.22
"2016-11-07 00:00:00",107,14.72,-6.12,6.367,"2016-11-06 13:09:00",0.464,0.38,0.254,7.472,"2016-11-06 12:54:15",12.2
"2016-11-08 00:00:00",108,13.98,-39.81,4.223,"2016-11-07 19:32:00",0.493,0.329,0,4.756,"2016-11-07 19:31:40",12.22
"2016-11-09 00:00:00",109,15.74,-4.84,3.424,"2016-11-08 13:34:00",0.468,0.395,0,4.436,"2016-11-08 13:33:05",12.21
"2016-11-10 00:00:00",110,20.12,-39.81,3.677,"2016-11-09 19:59:00",0.484,0.498,0,4.116,"2016-11-09 19:58:30",12.2
"2016-11-11 00:00:00",111,16.18,-4.062,4.436,"2016-11-10 13:32:00",0.532,0.405,0,5.395,"2016-11-10 13:15:55",12.22
"2016-11-12 00:00:00",112,15.57,-4.737,3.703,"2016-11-11 13:05:00",0.494,0.383,0.254,4.436,"2016-11-11 12:49:10",12.2
"2016-11-13 00:00:00",113,15.64,-6.255,6.713,"2016-11-12 15:33:00",0.504,0.383,0,7.952,"2016-11-12 16:00:50",12.18
"2016-11-14 00:00:00",114,13.72,-39.81,6.367,"2016-11-13 15:59:00",0.501,0.369,0,8.27,"2016-11-13 12:15:35",12.23
"2016-11-15 00:00:00",115,16.38,-6.154,7.659,"2016-11-14 14:16:00",0.452,0.408,0,8.91,"2016-11-14 14:15:25",12.19
"2016-11-16 00:00:00",116,16.28,-6.863,8.2,"2016-11-15 14:00:00",0.36,0.504,0,9.71,"2016-11-15 13:59:30",12.17
"2016-11-17 00:00:00",117,12.57,-6.762,9.16,"2016-11-16 21:26:00",0.385,0.263,0,11.47,"2016-11-16 21:28:45",12.18
"2016-11-18 00:00:00",118,-0.727,-13.41,8.83,"2016-11-17 11:51:00",0.359,0.085,0,10.35,"2016-11-17 09:50:55",12.22
"2016-11-19 00:00:00",119,-2.463,-39.85,3.69,"2016-11-18 14:59:00",0.221,0.065,0,4.436,"2016-11-18 14:55:00",12.01
"2016-11-20 00:00:00",120,0.957,-13.14,3.424,"2016-11-19 12:46:00",0.271,0.121,0.254,4.116,"2016-11-19 12:52:35",12.08
"2016-11-21 00:00:00",121,7.888,-10.71,4.116,"2016-11-20 13:48:00",0.377,0.187,0,4.915,"2016-11-20 13:46:55",12.18
"2016-11-22 00:00:00",122,3.154,-1.436,3.424,"2016-11-21 10:28:00",0.598,0.027,3.81,3.797,"2016-11-21 02:40:30",12.26
"2016-11-23 00:00:00",123,5.043,-10.17,6.886,"2016-11-22 11:16:00",0.401,0.144,0,8.43,"2016-11-22 11:15:35",12.17
"2016-11-24 00:00:00",124,1.938,-39.85,8.11,"2016-11-23 19:35:00",0.368,0.107,0,9.55,"2016-11-23 19:34:50",12.3
"2016-11-25 00:00:00",125,1.403,-11.18,8.48,"2016-11-24 01:50:00",0.296,0.143,0,10.19,"2016-11-24 01:49:45",12.27
"2016-11-26 00:00:00",126,1.526,-14.32,3.637,"2016-11-25 14:34:00",0.268,0.115,0,4.276,"2016-11-25 14:33:20",12.16
"2016-11-27 00:00:00",127,4.195,-14.09,4.023,"2016-11-26 13:40:00",0.28,0.155,0,4.596,"2016-11-26 13:39:15",12.16
"2016-11-28 00:00:00",128,2.747,-8.11,10.91,"2016-11-27 13:43:00",0.362,0.107,0,13.38,"2016-11-27 14:05:00",12.26
"2016-11-29 00:00:00",129,-0.22,-14.46,7.059,"2016-11-28 15:58:00",0.294,0.084,0,8.59,"2016-11-28 15:57:25",12.21
"2016-11-30 00:00:00",130,1.133,-15.07,8.31,"2016-11-29 14:58:00",0.21,0.115,0,10.19,"2016-11-29 14:56:55",12.13
"2016-12-01 00:00:00",131,0.694,-15.34,8.03,"2016-11-30 13:39:00",0.236,0.097,0,9.23,"2016-11-30 13:38:35",12.14
"2016-12-02 00:00:00",132,1.03,-13.62,6.54,"2016-12-01 15:39:00",0.269,0.079,0,8.27,"2016-12-01 15:44:00",12.19
"2016-12-03 00:00:00",133,1.768,-16.76,4.622,"2016-12-02 17:09:00",0.201,0.111,0,5.235,"2016-12-02 00:03:00",12.12
"2016-12-04 00:00:00",134,0.762,-15.2,9.16,"2016-12-03 15:25:00",0.222,0.103,0,10.67,"2016-12-03 15:24:45",12.11
"2016-12-05 00:00:00",135,0.518,-14.26,7.872,"2016-12-04 19:10:00",0.333,0.087,0,9.71,"2016-12-04 17:30:55",12.17
"2016-12-06 00:00:00",136,-2.72,-26.93,12.68,"2016-12-05 03:46:00",0.18,0.09,0,16.9,"2016-12-05 03:42:05",12.16
"2016-12-07 00:00:00",137,-9.39,-30.83,3.104,"2016-12-06 11:11:00",0.095,0.051,0,3.797,"2016-12-06 11:10:35",11.84
"2016-12-08 00:00:00",138,-6.159,-28.39,3.158,"2016-12-07 01:10:00",0.111,0.062,0,3.317,"2016-12-07 00:54:55",12
"2016-12-09 00:00:00",139,-8.79,-30.12,3.397,"2016-12-08 12:51:00",0.112,0.049,0,4.116,"2016-12-08 12:48:15",11.91
"2016-12-10 00:00:00",140,-2.01,-13.58,3.091,"2016-12-09 00:58:00",0.252,0.053,0,3.317,"2016-12-09 00:25:40",12.12
"2016-12-11 00:00:00",141,3.249,-8.83,10.03,"2016-12-10 19:04:00",0.423,0.081,6.35,11.95,"2016-12-10 18:14:20",12.23
"2016-12-12 00:00:00",142,-1.018,-19.97,7.033,"2016-12-11 11:45:00",0.248,0.09,0,8.43,"2016-12-11 11:40:20",12.25
"2016-12-13 00:00:00",143,-3.825,-23.76,8.66,"2016-12-12 18:27:00",0.215,0.067,0,11.15,"2016-12-12 18:35:55",12.09
"2016-12-14 00:00:00",144,2.128,-39.88,3.664,"2016-12-13 00:24:00",0.138,0.078,0,4.116,"2016-12-13 00:24:35",11.98
"2016-12-15 00:00:00",145,-2.54,-39.81,3.051,"2016-12-14 22:44:00",0.246,0.059,0,3.317,"2016-12-14 22:43:55",12.11
"2016-12-16 00:00:00",146,3.859,-12.14,6.327,"2016-12-15 14:31:00",0.419,0.086,4.572,7.472,"2016-12-15 14:30:10",12.17
"2016-12-17 00:00:00",147,4.13,-18.86,11.97,"2016-12-16 12:42:00",0.463,0.06,2.032,14.02,"2016-12-16 12:19:35",12.32
"2016-12-18 00:00:00",148,-11.48,-39.88,7.885,"2016-12-17 14:07:00",0.086,0.046,0,9.23,"2016-12-17 14:08:15",11.95
"2016-12-19 00:00:00",149,-11.05,-39.88,10.06,"2016-12-18 15:25:00",0.089,0.05,0,11.47,"2016-12-18 15:24:05",11.89
"2016-12-20 00:00:00",150,-5.234,-28.66,4.103,"2016-12-19 03:16:00",0.14,0.057,0,4.756,"2016-12-19 03:15:40",11.92
"2016-12-21 00:00:00",151,1.234,-39.88,10.61,"2016-12-20 22:14:00",0.311,0.096,0.254,12.91,"2016-12-20 22:13:20",12.1
"2016-12-22 00:00:00",152,0.558,-22.64,7.179,"2016-12-21 12:43:00",0.232,0.12,0,8.43,"2016-12-21 12:43:05",12.26
"2016-12-23 00:00:00",153,-2.799,-25.24,4.196,"2016-12-22 19:30:00",0.101,0.072,0,4.756,"2016-12-22 19:30:30",11.98
"2016-12-24 00:00:00",154,-0.747,-26.66,3.357,"2016-12-23 18:15:00",0.157,0.076,0,3.637,"2016-12-23 16:13:00",11.94
"2016-12-25 00:00:00",155,1.329,-39.88,6.979,"2016-12-24 19:08:00",0.417,0.054,1.016,8.59,"2016-12-24 19:07:35",12.19
"2016-12-26 00:00:00",156,-0.659,-39.88,13.36,"2016-12-25 14:13:00",0.333,0.055,0,15.62,"2016-12-25 14:12:45",12.27
"2016-12-27 00:00:00",157,-1.931,-24.84,5.688,"2016-12-26 05:11:00",0.134,0.055,0,6.194,"2016-12-26 05:10:35",12.04
"2016-12-28 00:00:00",158,-4.705,-28.9,3.743,"2016-12-27 20:37:00",0.139,0.055,0,4.436,"2016-12-27 20:37:15",11.94
"2016-12-29 00:00:00",159,-4.846,-22.74,10.04,"2016-12-28 13:46:00",0.213,0.079,0,11.47,"2016-12-28 13:43:55",12.17
"2016-12-30 00:00:00",160,-3.623,-27.54,4.942,"2016-12-29 02:32:00",0.1,0.066,0,5.555,"2016-12-29 02:31:25",12.05
"2016-12-31 00:00:00",161,-0.409,-25.24,3.331,"2016-12-30 19:05:00",0.131,0.07,0,3.637,"2016-12-30 19:03:20",12.02
"2017-01-01 00:00:00",162,3.026,-20.95,6.7,"2016-12-31 15:44:00",0.189,0.098,0,7.312,"2016-12-31 15:43:45",12.16
"2017-01-02 00:00:00",163,-3.487,-26.26,4.542,"2017-01-01 18:22:00",0.153,0.057,0,5.075,"2017-01-01 18:21:15",12.04
"2017-01-03 00:00:00",164,-0.51,-23.79,7.033,"2017-01-02 02:26:00",0.162,0.056,0,7.792,"2017-01-02 02:09:20",12.08
"2017-01-04 00:00:00",165,0,-22.83,3.411,"2017-01-03 17:50:00",0.178,0.05,0,4.116,"2017-01-03 17:48:55",0
"2017-01-05 00:00:00",166,-6.379,-16.51,7.712,"2017-01-04 23:03:00",0.215,0.044,0,8.75,"2017-01-04 22:34:10",12.13
"2017-01-06 00:00:00",167,-11.42,-36.42,5.275,"2017-01-05 00:51:00",0.074,0.033,0,5.714,"2017-01-05 00:50:25",12
"2017-01-07 00:00:00",168,-16.93,-39.85,2.865,"2017-01-06 23:52:00",0.034,0.017,0,2.998,"2017-01-06 23:10:55",11.68
"2017-01-08 00:00:00",169,-12.49,-36.73,2.891,"2017-01-07 03:55:00",0.07,0.029,0,2.998,"2017-01-07 03:53:50",11.76
"2017-01-09 00:00:00",170,-2.709,-17,5.155,"2017-01-08 17:29:00",0.229,0.051,0,5.874,"2017-01-08 17:18:15",12.09
"2017-01-10 00:00:00",171,2.644,-10.38,12.79,"2017-01-09 19:20:00",0.433,0.051,3.556,15.46,"2017-01-09 15:10:50",12.17
"2017-01-11 00:00:00",172,-0.93,-13.69,8.43,"2017-01-10 19:01:00",0.392,0.041,0,9.55,"2017-01-10 19:02:15",12.37
"2017-01-12 00:00:00",173,7.271,-14.9,8.24,"2017-01-11 15:49:00",0.371,0.092,0.762,9.55,"2017-01-11 15:47:45",12.37
"2017-01-13 00:00:00",174,-9.35,-27.58,4.902,"2017-01-12 22:51:00",0.113,0.043,0,5.235,"2017-01-12 22:51:20",12.13
"2017-01-14 00:00:00",175,-3.958,-25.85,4.13,"2017-01-13 19:45:00",0.102,0.051,0,4.276,"2017-01-13 19:43:50",12.07
"2017-01-15 00:00:00",176,-1.864,-24.74,4.636,"2017-01-14 10:14:00",0.135,0.053,0,4.915,"2017-01-14 10:13:50",12.1
"2017-01-16 00:00:00",177,-9.59,-28.46,3.703,"2017-01-15 04:03:00",0.084,0.031,0,4.116,"2017-01-15 04:02:45",12.04
"2017-01-17 00:00:00",178,-6.35,-32.08,3.597,"2017-01-16 13:08:00",0.073,0.035,0,3.957,"2017-01-16 13:07:35",11.95
"2017-01-18 00:00:00",179,-4.874,-39.88,2.745,"2017-01-17 22:29:00",0.082,0.036,0,2.838,"2017-01-17 22:27:50",11.99
"2017-01-19 00:00:00",180,-6.7,-28.56,3.118,"2017-01-18 11:59:00",0.099,0.039,0,3.477,"2017-01-18 11:56:15",12.03
"2017-01-20 00:00:00",181,-2.815,-21.29,3.024,"2017-01-19 08:18:00",0.203,0.048,0,3.317,"2017-01-19 08:17:05",12.17
"2017-01-21 00:00:00",182,-1.458,-21.46,4.103,"2017-01-20 18:48:00",0.168,0.048,0,4.436,"2017-01-20 18:46:55",12.17
"2017-01-22 00:00:00",183,1.978,-16.02,5.341,"2017-01-21 20:07:00",0.247,0.074,0,5.874,"2017-01-21 20:07:30",12.21
"2017-01-23 00:00:00",184,-0.151,-19.5,3.65,"2017-01-22 14:52:00",0.216,0.046,0,4.276,"2017-01-22 00:05:40",12.16
"2017-01-24 00:00:00",185,-2.679,-9.5,7.965,"2017-01-23 23:12:00",0.317,0.042,0,9.39,"2017-01-23 23:02:45",12.24
"2017-01-25 00:00:00",186,-6.362,-20.34,7.459,"2017-01-24 13:25:00",0.262,0.034,0,7.792,"2017-01-24 03:56:00",12.25
"2017-01-26 00:00:00",187,-11.17,-24.57,3.304,"2017-01-25 03:00:00",0.106,0.029,0,3.477,"2017-01-25 00:00:05",12.06
"2017-01-27 00:00:00",188,-2.98,-26.94,4.502,"2017-01-26 20:59:00",0.109,0.047,0,4.756,"2017-01-26 20:57:00",12.07
"2017-01-28 00:00:00",189,-9.47,-32.42,8.44,"2017-01-27 19:51:00",0.091,0.032,0,9.39,"2017-01-27 21:57:10",11.96
"2017-01-29 00:00:00",190,0.225,-15.51,8.9,"2017-01-28 10:27:00",0.225,0.112,0,10.03,"2017-01-28 10:26:35",12.22
"2017-01-30 00:00:00",191,7,-16.46,9.1,"2017-01-29 01:07:00",0.24,0.144,0.508,10.19,"2017-01-29 01:13:10",12.28
"2017-01-31 00:00:00",192,3.128,-18.86,3.291,"2017-01-30 21:46:00",0.182,0.1,0,3.797,"2017-01-30 21:45:35",12.15
"2017-02-01 00:00:00",193,4.499,-39.88,9.87,"2017-01-31 14:08:00",0.284,0.176,0.508,11.47,"2017-01-31 16:27:05",12.22
"2017-02-02 00:00:00",194,2.749,-11.46,6.593,"2017-02-01 21:28:00",0.355,0.129,0.254,7.472,"2017-02-01 21:27:10",12.3
"2017-02-03 00:00:00",195,-1.741,-14.33,3.797,"2017-02-02 01:05:00",0.216,0.072,0,4.116,"2017-02-02 00:56:50",12.19
"2017-02-04 00:00:00",196,1.504,-13.89,3.051,"2017-02-03 12:45:00",0.283,0.07,0,3.317,"2017-02-03 12:44:10",12.2
"2017-02-05 00:00:00",197,6.873,-10.21,5.115,"2017-02-04 15:03:00",0.373,0.08,0.254,6.354,"2017-02-04 12:38:55",12.24
"2017-02-06 00:00:00",198,3.252,-9.27,3.943,"2017-02-05 17:47:00",0.413,0.069,0,4.596,"2017-02-05 18:01:55",12.29
"2017-02-07 00:00:00",199,8.39,-7.713,7.965,"2017-02-06 21:54:00",0.46,0.07,0,9.07,"2017-02-06 21:53:25",12.26
"2017-02-08 00:00:00",200,2.113,-3.864,15.64,"2017-02-07 19:43:00",0.488,0.04,0,18.02,"2017-02-07 21:36:45",12.29
"2017-02-09 00:00:00",201,5.885,-39.88,13.57,"2017-02-08 00:53:00",0.441,0.108,0,15.46,"2017-02-08 00:52:05",12.27
"2017-02-10 00:00:00",202,10.28,-7.005,8.76,"2017-02-09 21:24:00",0.551,0.106,0,10.19,"2017-02-09 22:18:15",12.26
"2017-02-11 00:00:00",203,9.24,-1.031,9.68,"2017-02-10 00:58:00",0.605,0.105,0.254,12.27,"2017-02-10 00:57:35",12.32
"2017-02-12 00:00:00",204,2.377,-15.88,9.1,"2017-02-11 14:36:00",0.356,0.111,0,9.71,"2017-02-11 14:31:45",12.28